Terug naar catalogus

STARLINK-34972

ActiefCommunicatieSSO
NORAD 65188·PAYLOAD·🇺🇸 United States

Gelanceerd Aug 14, 2025 vanaf Vandenberg Space Force Base

Loading…

Volgende Passages (komende 24 uur)

TLE

VersSource: CelesTrak SupGP

Epoch: Sep 15, 2026, 03:11 UTC

1 65188C 25175Q   26258.13312500  .00026793  00000+0  83145-3 0  2584
2 65188  97.2843 127.2213 0001684  93.4171 220.6714 15.33435343    12

Volg STARLINK-34972 in realtime met AllMySat

Download on the App Store